Miscellaneous Local Product
Issued by NWS North Platte, NE

Home | Current Version | Previous Version | Text Only | Print | Product List | Glossary On
Versions: 1 2 3 4 5 6 7 8 9 10 11 12 13 14 15 16 17 18 19 20 21 22 23 24 25 26 27 28 29 30 31 32 33 34 35 36 37 38 39 40 41 42 43 44 45 46 47 48 49 50
000
AXUS43 KLBF 030210
MISLBF


WESTERN AND NORTH CENTRAL NEBRASKA HOURLY WEATHER ROUNDUP
NATIONAL WEATHER SERVICE NORTH PLATTE NE
900 PM CDT MON MAY 02 2016

NOTE: "FAIR" INDICATES FEW OR NO CLOUDS BELOW 12,000 FEET WITH NO
SIGNIFICANT WEATHER AND/OR OBSTRUCTIONS TO VISIBILITY.

NOTE: STATIONS NOT REPORTING VARIABLES SUCH AS SKY/WEATHER OR
PRESSURE ARE PROVIDED BY RAWS AND APRS NETWORKS AND ARE NOT UNDER
NATIONAL WEATHER SERVICE QUALITY CONTROL.

...OBSERVATIONS IN AND NEAR THE EASTERN PANHANDLE OF NEBRASKA...

CITY           SKY/WX    TMP DP  RH WIND       PRES   REMARKS
PINE RIDGE     CLOUDY    50  41  71 NE5       30.03R
CHADRON        CLOUDY    53  39  59 SE6       30.01S
ALLIANCE       MOCLDY    49  39  68 NE7       30.02R
SIDNEY         CLOUDY    53  33  46 CALM      30.04S
CRESCENT LAKE    N/A     50  36  59 CALM        N/A
BIG SPRINGS      N/A     54  42  64 CALM        N/A
$$

...OBSERVATIONS IN NORTHERN NEBRASKA AND FAR SOUTHERN SOUTH DAKOTA...

CITY           SKY/WX    TMP DP  RH WIND       PRES   REMARKS
WINNER         CLOUDY    54  46  74 S3        30.01S
VALENTINE      LGT RAIN  51  40  65 NW8       30.04R
THEDFORD       CLOUDY    51  40  67 S7        30.01F
AINSWORTH      CLOUDY    52  43  69 E5        30.01S
O`NEILL        DRIZZLE   53  44  73 CALM      30.02F
ORD            PTCLDY    49  42  77 S3        30.01F
BROKEN BOW     PTCLDY    50  39  66 SE5       30.02S
VALENTINE NWR    N/A     53  37  54 SW7G15      N/A
BUTTE            N/A     51  46  82 SE6         N/A
HALSEY           N/A     54  36  50 CALM        N/A
CHAMBERS         N/A     55  36  48 N3          N/A
EWING            N/A     54  44  69 W3          N/A
$$

...OBSERVATIONS IN SOUTHWEST NEBRASKA AND FAR NORTHEAST COLORADO...

CITY           SKY/WX    TMP DP  RH WIND       PRES   REMARKS
HOLYOKE        MOCLDY    57  32  38 NW3       30.05S
IMPERIAL         N/A     58  29  33 W15       30.04S
OGALLALA       MOCLDY    50  39  66 NE6       30.03F
NORTH PLATTE   LGT RAIN  50  39  66 N6        30.04R
MCCOOK         CLOUDY    55  37  50 NW5       30.03S
LEXINGTON      PTCLDY    51  40  66 SE7       30.03S
PAXTON           N/A     56  40  54 CALM        N/A
STAPLETON        N/A     50  42  72 CALM        N/A
GOTHENBURG       N/A     58  36  43 E3          N/A
CALLAWAY         N/A     55  39  54 CALM        N/A
$$

...OBSERVATIONS IN CENTRAL LINCOLN COUNTY AREA...

CITY           SKY/WX    TMP DP  RH WIND       PRES   REMARKS
N.P. AIRPORT   LGT RAIN  50  39  66 N6        30.04R
N.P. DOWNTOWN    N/A     53  39  59 CALM        N/A
N.P. HILLCREST   N/A     49  40  72 E6          N/A
$$

...SOME OBSERVATIONS FROM AROUND THE REGION...

CITY           SKY/WX    TMP DP  RH WIND       PRES   REMARKS
DENVER         PTCLDY    52  23  32 N6        30.11S
LARAMIE        PTCLDY    38  25  59 NW9       30.17R WCI  31
CHEYENNE       CLEAR     49  25  39 NW9       30.12R
SCOTTSBLUFF    MOCLDY    57  31  37 NW17      30.02R
RAPID CITY     MOCLDY    55  40  56 N12       29.99R
BISMARCK       CLEAR     56  42  59 E6        29.99R
PIERRE         MOCLDY    49  43  80 CALM      30.00R
SIOUX FALLS    PTCLDY    56  38  50 SW3       30.01S
OMAHA          PTCLDY    55  42  61 CALM      30.04S
GRAND ISLAND   PTCLDY    54  39  57 S6        30.04F
KANSAS CITY    PTCLDY    49  45  86 S5        30.06S
WICHITA        PTCLDY    56  38  50 CALM      30.08R
OKLAHOMA CITY  PTCLDY    57  42  57 N5        30.11R
DALLAS         PTCLDY    57  46  66 NE7       30.10R
AMARILLO       CLEAR     55  36  48 NE3       30.14R
DODGE CITY     CLEAR     53  34  48 W5        30.09R
HAYS           MOCLDY    55  37  50 E3        30.05S
GOODLAND       PTCLDY    52  34  50 N3        30.06S
$$




USA.gov is the U.S. government's official web portal to all federal, state and local government web resources and services.